Regional Weather Roundup
Issued by NWS

Home | Current Version | Previous Version | Text Only | Print | Product List | Glossary Off
Versions: 1 2 3 4 5 6 7 8 9 10 11 12 13 14 15 16 17 18 19 20 21 22 23 24 25 26 27 28 29 30 31 32 33 34 35 36 37 38 39 40 41 42 43 44 45 46 47 48 49 50

000
ASUS45 KTFX 251710
RWRMT
MONTANA REGIONAL WEATHER ROUNDUP
NATIONAL WEATHER SERVICE GREAT FALLS MT
1000 AM MST SAT FEB 25 2017

NOTE: "FAIR" INDICATES FEW OR NO CLOUDS BELOW 12000 FEET WITH NO
SIGNIFICANT WEATHER AND/OR OBSTRUCTIONS TO VISIBILITY.

MTZ001>007-043-251800-
WEST OF THE DIVIDE

CITY           SKY/WX    TMP DP  RH WIND       PRES   REMARKS
KALISPELL      CLOUDY    15  10  80 CALM      29.93F
MISSOULA       MOSUNNY   23  16  74 W3        30.00F
BUTTE          PTSUNNY   18   7  62 N5        29.86F
MULLAN PASS    LGT SNOW  13  12  96 VRB6      29.84F FOG     WCI   4
ANACONDA         N/A     21   3  45 SW10G16   29.89F WCI  10
DEER LODGE       N/A     25   1  36 W9G18     29.90F WCI  15
EUREKA           N/A     21  12  68 SE3       29.95S
HAMILTON         N/A     28  10  47 SE8       29.98F WCI  20
LIBBY            N/A     21  16  79 CALM      29.97F
RONAN            N/A     25  15  65 S5        30.00F
$$

MTZ008-052>055-251800-
SOUTHWEST MONTANA

CITY           SKY/WX    TMP DP  RH WIND       PRES   REMARKS
BOZEMAN        CLOUDY    21  14  74 NE5       29.90F
DILLON         SUNNY     20   9  62 SW22      29.89F WCI   3
W YELLOWSTONE  CLOUDY    10   5  79 SW16G23   29.86S HAZE    WCI  -7
ENNIS          CLOUDY    21   9  58 SE12      29.93F WCI   9
THREE FORKS      N/A     22  12  65 SW8       29.91F WCI  13
TWIN BRIDGES     N/A     22   8  54 E6        29.91F WCI  15
$$

MTZ009-010-012-014-046-048-049-054-251800-
EAST SLOPES AND CENTRAL MONTANA

CITY           SKY/WX    TMP DP  RH WIND       PRES   REMARKS
CUT BANK       SUNNY     24  12  60 W16       29.74F WCI  11
GREAT FALLS    SUNNY     28   8  43 SW23G29   29.79F WCI  14
MALMSTROM AFB  SUNNY     28  10  48 SW21G35   29.82F WCI  14
HELENA         PTSUNNY   29   8  41 W13       29.88F WCI  19
AUGUSTA          N/A     26   5  41 W28G35    29.76F WCI  10
BOWMANS CRNR     N/A     24   9  51 SW16      29.78F WCI  11
CHOTEAU          N/A     28   5  37 W16G23    29.78F WCI  17
CONRAD           N/A     27  15  60 SW7       29.81F WCI  20
POWER            N/A     26  12  54 SW18G24   29.77F WCI  13
RAYNESFORD       N/A     24   9  53 W22G32    29.79F WCI   9
ULM              N/A     28  10  47 MISG      29.82F
$$

MTZ011-013-016-021-045-047-050-051-251800-
NORTH CENTRAL MONTANA

CITY           SKY/WX    TMP DP  RH WIND       PRES   REMARKS
HAVRE          CLOUDY    24  18  77 SW15      29.81F WCI  11
LEWISTOWN      SUNNY     21  10  62 SW15      29.78F WCI   8
N BAR RANCH      N/A     21   7  53 W15G22    29.79F WCI   8
CHINOOK          N/A     25  19  80 W9        29.82F WCI  15
DENTON           N/A     26  12  54 W26G33    29.76F WCI  11
FORT BENTON      N/A     30  12  47 MISG      29.83F
GEYSER           N/A     25   8  49 W23G32    29.78F WCI  10
GRASS RANGE      N/A     22  12  66 W18       29.77F WCI   8
JUDITH GAP       N/A     18   7  63 W9        29.78F WCI   6
ROY              N/A     25  13  60 MISG      29.77F
STANFORD         N/A     24  11  56 W23G30    29.77  WCI   9
WINIFRED         N/A     23  15  71 SW13      29.78F WCI  11
$$

MTZ017>020-022>027-061-062-251800-
NORTHEAST MONTANA

CITY           SKY/WX    TMP DP  RH WIND       PRES   REMARKS
GLASGOW        LGT SNOW  25  21  85 W10       29.81F FOG     WCI  15
JORDAN           N/A     27  21  78 W13       29.83F WCI  16
SIDNEY         CLOUDY    25  21  85 S5        29.87F
WOLF POINT     LGT SNOW  22  18  85 CALM      29.85F FOG
PLENTYWOOD       N/A     19  16  86 CALM      29.83F VSB 1
POPLAR           N/A     19  16  86 CALM      29.85F
SCOBEY           N/A     19  12  74 CALM      29.80F VSB 1
$$

MTZ028>42-056>058-251800-
SOUTHCENTRAL AND SOUTHEAST MONTANA

CITY           SKY/WX    TMP DP  RH WIND       PRES   REMARKS
BAKER          CLOUDY    25  18  74 NW12      29.84F WCI  14
BILLINGS       PTSUNNY   25  19  78 SW14      29.86F WCI  13
LIVINGSTON     CLOUDY    23  13  65 W18       29.84F WCI   9
MILES CITY     CLOUDY    29  21  72 W12       29.86F WCI  19
BIG TIMBER     PTSUNNY   21  18  86 W25       29.85F FOG     WCI   4
FORSYTH          N/A     28  21  74 W3        29.86F
HARLOWTON      LGT SNOW  21  17  83 W17       29.81F WCI   7
LAUREL           N/A     23  13  65 S14       29.85F WCI  11
$$

REGIONAL REPORTS...DAKOTAS

CITY           SKY/WX    TMP DP  RH WIND       PRES   REMARKS
WILLISTON      PTSUNNY   22  17  81 W5        29.86F
MINOT          PTSUNNY   22  17  81 W14       29.85F WCI   9
DICKINSON      CLOUDY    22  18  85 NW10      29.82F WCI  11
BEACH            N/A    N/A N/A N/A MISG        N/A
CROSBY         LGT SNOW  16  14  93 N8        29.87F WCI   5
TIOGA          PTSUNNY   19  18  93 NW5       29.84F
WATFORD CITY   CLOUDY    19  19 100 SW5       29.86F
BISMARCK       LGT SNOW  27  24  89 N9        29.87S VSB 1   WCI  18
GRAND FORKS    PTSUNNY   30  20  66 W9        29.82F WCI  22
FARGO          CLOUDY    29  20  69 SW15      29.87F WCI  18
BUFFALO SD       N/A     31  18  58 NW17      29.76F WCI  19
RAPID CITY     SUNNY     29  20  69 N13       29.87F WCI  19
$$

REGIONAL REPORTS...WYOMING/IDAHO/WASHINGTON

CITY           SKY/WX    TMP DP  RH WIND       PRES   REMARKS
GILLETTE       CLOUDY    24  17  74 W10       29.84F WCI  14
SHERIDAN       CLOUDY    24  18  77 MISG      29.85F
BUFFALO WY     CLOUDY    22  15  75 S10       29.81F WCI  11
CODY           MOSUNNY   27   3  35 W15G25    29.83F WCI  15
YELLOWSTONE LA   N/A      9   1  70 W8        29.80F WCI  -3
IDAHO FALLS    PTSUNNY   14  10  84 SW10      30.03S WCI   1
SALMON         CLOUDY    23   9  54 SW18G24   30.00F WCI   9
BOISE          SUNNY     28  16  60 CALM      30.15F
SPOKANE        MOSUNNY   23  22  96 SW5       30.08F
$$

REGIONAL REPORTS...ALBERTA

CITY           SKY/WX    TMP DP  RH WIND       PRES   REMARKS
EDMONTON       PTSUNNY   16  10  79 SW9       29.70F WCI   4
LETHBRIDGE     MOSUNNY   19   1  45 CALM      29.77F
MEDICINE HAT   PTSUNNY   14  10  85 E3        29.81F
WATERTON GATE    N/A     25   7  46 SW22G32     N/A  WCI  10
CARDSTON         N/A     27   9  46 W14G22      N/A  WCI  15
MILK RIVER       N/A     25  16  68 W15         N/A  WCI  12
$$

REGIONAL REPORTS...SASKATCHEWAN

CITY           SKY/WX    TMP DP  RH WIND       PRES   REMARKS
SWIFT CURRENT  CLOUDY    12   9  85 SW5       29.79F
REGINA         PTSUNNY   12   5  73 NW10      29.85F WCI  -1
SASKATOON      CLOUDY     9   1  72 W7        29.88F WCI  -3
VAL MARIE        N/A     18  14  86 NE10        N/A  WCI   6
ROCKGLEN         N/A     14  12  92 NE5         N/A
ASSINIBOIA       N/A     16  10  79 S7          N/A  WCI   6
$$



USA.gov is the U.S. government's official web portal to all federal, state and local government web resources and services.